Location: Litvinovka
(48.6667°N, 34.3500°E)
Time: 07:39:51
(UTC+00:00)

Cosmos 1844 Rocket - Pass Details

Date: 18 September 2020
Orbit: 823 x 846 km, 71.0° (Epoch: 22 October)

Event Time Altitude Azimuth Distance (km) Brightness Sun altitude
Rises 16:16:15 0° 147° (SSE) 3,347 5.4 -5.4°
Reaches altitude 10° 16:20:11 10° 120° (ESE) 2,424 4.5 -6.0°
Maximum altitude 16:22:25 13° 96° (E) 2,253 4.3 -6.4°
Drops below altitude 10° 16:24:39 10° 72° (ENE) 2,435 4.6 -6.8°
Sets 16:28:35 0° 44° (NE) 3,379 5.5 -7.4°
